Caldwell, NJ

12:59 PM EDT on September 15, 2019 (GMT -0400)
Essex County

Weather History for KCDW - August, 2019

Change the Weather History Date:

Sunday, August 25, 2019

  Actual Average Record
Temperature  
Mean Temperature 68 °F -  
Max Temperature 78 °F 81 °F 94 °F (1980)
Min Temperature 62 °F 55 °F 44 °F (1971)
Cooling Degree Days 4    
Growing Degree Days 18 (Base 50)    
Moisture  
Dew Point 57 °F    
Average Humidity 68    
Maximum Humidity 90    
Minimum Humidity 46    
Precipitation  
Precipitation 0.00 in - - ()
Sea Level Pressure  
Sea Level Pressure 30.27 in    
Wind  
Wind Speed 5 mph ()    
Max Wind Speed 12 mph    
Max Gust Speed 24 mph    
Visibility 10.0 miles    
Events      
Averages and records for this station are not official NWS values.
T = Trace of Precipitation, MM = Missing Value Source: Averaged Metar Reports

Daily Weather History Graph

Daily Weather History Graph

Search for Another Location

Airport or City:

Astronomy

Aug. 25, 2019 Rise Set
Actual Time 6:16 AM EDT 7:40 PM EDT
Civil Twilight 5:48 AM EDT 8:09 PM EDT
Nautical Twilight 5:13 AM EDT 8:43 PM EDT
Astronomical Twilight 4:37 AM EDT 9:20 PM EDT
Moon 12:48 AM EDT (8/25) 4:00 PM EDT (8/25)
Length of Visible Light 14h 21m
Length of Day
13h 24m
Waning Crescent, 29% of the Moon is Illuminated
Aug 25
Waning Crescent
Aug 30
New
Sep 5
First Quarter
Sep 14
Full
Sep 21
Last Quarter

Hourly Weather History & Observations

Time (EDT) Temp. Dew Point Humidity Pressure Visibility Wind Dir Wind Speed Gust Speed Precip Events Conditions
12:53 AM 64.9 °F 57.9 °F 78% 30.28 in 10.0 mi Calm Calm - N/A   Mostly Cloudy
1:53 AM 62.1 °F 59.0 °F 90% 30.27 in 10.0 mi Calm Calm - N/A   Clear
2:53 AM 64.9 °F 59.0 °F 81% 30.27 in 10.0 mi East 5.8 mph - N/A   Overcast
3:53 AM 64.9 °F 60.1 °F 84% 30.27 in 10.0 mi NE 3.5 mph - 0.00 in   Overcast
4:53 AM 64.0 °F 57.9 °F 80% 30.27 in 10.0 mi NE 3.5 mph - N/A   Partly Cloudy
5:42 AM 63.0 °F 57.0 °F 81% 30.26 in 10.0 mi ENE 5.8 mph - N/A   Mostly Cloudy
5:53 AM 63.0 °F 57.0 °F 81% 30.28 in 10.0 mi NE 4.6 mph - N/A   Mostly Cloudy
6:27 AM 62.1 °F 55.9 °F 80% 30.27 in 10.0 mi NE 4.6 mph - N/A   Scattered Clouds
6:53 AM 62.1 °F 57.0 °F 84% 30.29 in 10.0 mi NE 3.5 mph - N/A   Clear
7:53 AM 64.9 °F 57.0 °F 75% 30.30 in 10.0 mi NE 4.6 mph - N/A   Clear
8:53 AM 66.9 °F 57.0 °F 70% 30.31 in 10.0 mi NNE 6.9 mph - N/A   Scattered Clouds
9:23 AM 68.0 °F 57.0 °F 68% 30.30 in 10.0 mi NE 9.2 mph - N/A   Mostly Cloudy
9:41 AM 69.1 °F 55.9 °F 63% 30.30 in 10.0 mi ENE 11.5 mph 21.9 mph N/A   Mostly Cloudy
9:53 AM 70.0 °F 55.9 °F 61% 30.31 in 10.0 mi ENE 10.4 mph - N/A   Mostly Cloudy
10:53 AM 71.1 °F 55.0 °F 57% 30.30 in 10.0 mi ENE 11.5 mph 19.6 mph N/A   Mostly Cloudy
11:53 AM 73.9 °F 55.9 °F 53% 30.30 in 10.0 mi ENE 10.4 mph 24.2 mph N/A   Mostly Cloudy
12:53 PM 75.0 °F 55.9 °F 51% 30.28 in 10.0 mi ENE 11.5 mph 20.7 mph N/A   Mostly Cloudy
1:53 PM 75.9 °F 54.0 °F 46% 30.27 in 10.0 mi ENE 11.5 mph 19.6 mph N/A   Scattered Clouds
2:53 PM 75.9 °F 54.0 °F 46% 30.25 in 10.0 mi East 9.2 mph - N/A   Scattered Clouds
3:53 PM 75.9 °F 54.0 °F 46% 30.23 in 10.0 mi ESE 9.2 mph 17.3 mph N/A   Scattered Clouds
4:53 PM 75.9 °F 55.0 °F 48% 30.23 in 10.0 mi East 8.1 mph - N/A   Mostly Cloudy
5:53 PM 73.9 °F 55.9 °F 53% 30.23 in 10.0 mi East 9.2 mph - N/A   Overcast
6:53 PM 72.0 °F 57.0 °F 59% 30.24 in 10.0 mi East 8.1 mph - N/A   Clear
7:53 PM 70.0 °F 57.0 °F 63% 30.25 in 10.0 mi ESE 9.2 mph - N/A   Clear
8:53 PM 69.1 °F 57.0 °F 65% 30.25 in 10.0 mi ENE 3.5 mph - N/A   Partly Cloudy
9:53 PM 66.9 °F 59.0 °F 76% 30.26 in 10.0 mi ENE 5.8 mph - N/A   Clear
10:53 PM 66.0 °F 59.0 °F 78% 30.26 in 10.0 mi NNE 3.5 mph - N/A   Partly Cloudy
11:53 PM 64.0 °F 60.1 °F 87% 30.26 in 10.0 mi Calm Calm - N/A   Scattered Clouds